![]() |
EMODnet Physics ERDDAP
Easier access to scientific data |
log in|
Brought to you by EMODnet Physics |
| Dataset Title: | NDBC - Collection of dew point temperature (DEWT) TimeSeries - IN SITU MultiPointTimeSeriesObservation
|
| Institution: | NDBC (Dataset ID: TS_DEWT_NDBC) |
| Information: | Summary
| License
| FGDC
| ISO 19115
| Metadata
| Background
| Subset
| Data Access Form
| Make a graph
|
| Name | Last modified | Size | Description | |
|---|---|---|---|---|
| Parent Directory | - | - | ||
| DTLM4_TS_DEWT_012015.nc | 23-Dec-2024 00:28 | 450828 | ||
| DTLM4_TS_DEWT_012016.nc | 23-Dec-2024 00:35 | 449828 | ||
| DTLM4_TS_DEWT_012017.nc | 23-Dec-2024 00:41 | 450081 | ||
| DTLM4_TS_DEWT_012018.nc | 23-Dec-2024 00:48 | 449673 | ||
| DTLM4_TS_DEWT_012019.nc | 23-Dec-2024 00:54 | 448606 | ||
| DTLM4_TS_DEWT_012020.nc | 23-Dec-2024 01:02 | 449190 | ||
| DTLM4_TS_DEWT_012021.nc | 23-Dec-2024 01:09 | 449628 | ||
| DTLM4_TS_DEWT_012022.nc | 23-Dec-2024 01:17 | 448581 | ||
| DTLM4_TS_DEWT_012023.nc | 23-Dec-2024 01:24 | 449400 | ||
| DTLM4_TS_DEWT_012025.nc | 07-Feb-2025 13:30 | 450484 | ||
| DTLM4_TS_DEWT_012026.nc | 02-Feb-2026 20:22 | 450357 | ||
| DTLM4_TS_DEWT_022015.nc | 23-Dec-2024 00:29 | 449716 | ||
| DTLM4_TS_DEWT_022016.nc | 23-Dec-2024 00:35 | 450063 | ||
| DTLM4_TS_DEWT_022017.nc | 23-Dec-2024 00:42 | 450384 | ||
| DTLM4_TS_DEWT_022018.nc | 23-Dec-2024 00:48 | 450339 | ||
| DTLM4_TS_DEWT_022019.nc | 23-Dec-2024 00:55 | 450074 | ||
| DTLM4_TS_DEWT_022020.nc | 23-Dec-2024 01:03 | 449914 | ||
| DTLM4_TS_DEWT_022021.nc | 23-Dec-2024 01:10 | 450051 | ||
| DTLM4_TS_DEWT_022022.nc | 23-Dec-2024 01:17 | 450685 | ||
| DTLM4_TS_DEWT_022023.nc | 23-Dec-2024 01:25 | 419651 | ||
| DTLM4_TS_DEWT_022025.nc | 01-Mar-2025 08:19 | 449221 | ||
| DTLM4_TS_DEWT_022026.nc | 01-Mar-2026 11:48 | 449852 | ||
| DTLM4_TS_DEWT_032014.nc | 23-Dec-2024 00:23 | 449800 | ||
| DTLM4_TS_DEWT_032015.nc | 23-Dec-2024 00:29 | 449050 | ||
| DTLM4_TS_DEWT_032016.nc | 23-Dec-2024 00:36 | 449206 | ||
| DTLM4_TS_DEWT_032017.nc | 23-Dec-2024 00:42 | 450218 | ||
| DTLM4_TS_DEWT_032018.nc | 23-Dec-2024 00:49 | 449724 | ||
| DTLM4_TS_DEWT_032019.nc | 23-Dec-2024 00:56 | 450048 | ||
| DTLM4_TS_DEWT_032020.nc | 23-Dec-2024 01:03 | 450350 | ||
| DTLM4_TS_DEWT_032021.nc | 23-Dec-2024 01:10 | 449949 | ||
| DTLM4_TS_DEWT_032022.nc | 23-Dec-2024 01:18 | 449235 | ||
| DTLM4_TS_DEWT_032023.nc | 23-Dec-2024 01:26 | 449283 | ||
| DTLM4_TS_DEWT_032025.nc | 02-Apr-2025 06:30 | 449351 | ||
| DTLM4_TS_DEWT_032026.nc | 25-Mar-2026 13:14 | 448770 | ||
| DTLM4_TS_DEWT_042014.nc | 23-Dec-2024 00:23 | 449323 | ||
| DTLM4_TS_DEWT_042015.nc | 23-Dec-2024 00:30 | 421923 | ||
| DTLM4_TS_DEWT_042016.nc | 23-Dec-2024 00:36 | 449494 | ||
| DTLM4_TS_DEWT_042017.nc | 23-Dec-2024 00:43 | 449736 | ||
| DTLM4_TS_DEWT_042018.nc | 23-Dec-2024 00:50 | 449716 | ||
| DTLM4_TS_DEWT_042019.nc | 23-Dec-2024 00:56 | 450148 | ||
| DTLM4_TS_DEWT_042020.nc | 23-Dec-2024 01:04 | 450484 | ||
| DTLM4_TS_DEWT_042021.nc | 23-Dec-2024 01:11 | 449516 | ||
| DTLM4_TS_DEWT_042022.nc | 23-Dec-2024 01:19 | 451345 | ||
| DTLM4_TS_DEWT_042023.nc | 23-Dec-2024 01:26 | 450868 | ||
| DTLM4_TS_DEWT_042025.nc | 01-May-2025 05:41 | 451402 | ||
| DTLM4_TS_DEWT_052014.nc | 23-Dec-2024 00:24 | 450642 | ||
| DTLM4_TS_DEWT_052015.nc | 23-Dec-2024 00:30 | 1260757 | ||
| DTLM4_TS_DEWT_052016.nc | 23-Dec-2024 00:37 | 1265769 | ||
| DTLM4_TS_DEWT_052017.nc | 23-Dec-2024 00:43 | 1264017 | ||
| DTLM4_TS_DEWT_052018.nc | 23-Dec-2024 00:50 | 1264507 | ||
| DTLM4_TS_DEWT_052019.nc | 23-Dec-2024 00:57 | 1265103 | ||
| DTLM4_TS_DEWT_052020.nc | 23-Dec-2024 01:04 | 1101838 | ||
| DTLM4_TS_DEWT_052021.nc | 23-Dec-2024 01:12 | 446803 | ||
| DTLM4_TS_DEWT_052022.nc | 23-Dec-2024 01:19 | 449457 | ||
| DTLM4_TS_DEWT_052023.nc | 23-Dec-2024 01:27 | 448185 | ||
| DTLM4_TS_DEWT_052025.nc | 01-Jun-2025 05:52 | 447324 | ||
| DTLM4_TS_DEWT_062014.nc | 23-Dec-2024 00:24 | 447319 | ||
| DTLM4_TS_DEWT_062015.nc | 23-Dec-2024 00:31 | 640039 | ||
| DTLM4_TS_DEWT_062016.nc | 23-Dec-2024 00:37 | 1024426 | ||
| DTLM4_TS_DEWT_062017.nc | 23-Dec-2024 00:44 | 1026530 | ||
| DTLM4_TS_DEWT_062018.nc | 23-Dec-2024 00:51 | 1106600 | ||
| DTLM4_TS_DEWT_062019.nc | 23-Dec-2024 00:58 | 1028279 | ||
| DTLM4_TS_DEWT_062020.nc | 23-Dec-2024 01:05 | 5067533 | ||
| DTLM4_TS_DEWT_062021.nc | 23-Dec-2024 01:12 | 449826 | ||
| DTLM4_TS_DEWT_062022.nc | 23-Dec-2024 01:20 | 449708 | ||
| DTLM4_TS_DEWT_062023.nc | 23-Dec-2024 01:28 | 451526 | ||
| DTLM4_TS_DEWT_062025.nc | 17-Jun-2025 04:47 | 450730 | ||
| DTLM4_TS_DEWT_072014.nc | 23-Dec-2024 00:25 | 451095 | ||
| DTLM4_TS_DEWT_072015.nc | 23-Dec-2024 00:31 | 1006994 | ||
| DTLM4_TS_DEWT_072016.nc | 23-Dec-2024 00:38 | 1263314 | ||
| DTLM4_TS_DEWT_072017.nc | 23-Dec-2024 00:45 | 1266496 | ||
| DTLM4_TS_DEWT_072018.nc | 23-Dec-2024 00:51 | 1265213 | ||
| DTLM4_TS_DEWT_072019.nc | 23-Dec-2024 00:58 | 2010966 | ||
| DTLM4_TS_DEWT_072020.nc | 23-Dec-2024 01:06 | 449436 | ||
| DTLM4_TS_DEWT_072021.nc | 23-Dec-2024 01:13 | 449189 | ||
| DTLM4_TS_DEWT_072022.nc | 23-Dec-2024 01:21 | 449673 | ||
| DTLM4_TS_DEWT_072023.nc | 23-Dec-2024 01:29 | 448671 | ||
| DTLM4_TS_DEWT_072025.nc | 16-Aug-2025 04:37 | 1111965 | ||
| DTLM4_TS_DEWT_082014.nc | 23-Dec-2024 00:26 | 1111713 | ||
| DTLM4_TS_DEWT_082015.nc | 23-Dec-2024 00:32 | 1113359 | ||
| DTLM4_TS_DEWT_082016.nc | 23-Dec-2024 00:38 | 1113017 | ||
| DTLM4_TS_DEWT_082017.nc | 23-Dec-2024 00:45 | 450553 | ||
| DTLM4_TS_DEWT_082018.nc | 23-Dec-2024 00:52 | 451015 | ||
| DTLM4_TS_DEWT_082019.nc | 23-Dec-2024 00:59 | 450523 | ||
| DTLM4_TS_DEWT_082020.nc | 23-Dec-2024 01:06 | 450486 | ||
| DTLM4_TS_DEWT_082021.nc | 23-Dec-2024 01:13 | 451311 | ||
| DTLM4_TS_DEWT_082022.nc | 23-Dec-2024 01:21 | 1264209 | ||
| DTLM4_TS_DEWT_082023.nc | 23-Dec-2024 01:29 | 1265698 | ||
| DTLM4_TS_DEWT_082025.nc | 01-Sep-2025 05:18 | 1264196 | ||
| DTLM4_TS_DEWT_092014.nc | 23-Dec-2024 00:26 | 1262663 | ||
| DTLM4_TS_DEWT_092015.nc | 23-Dec-2024 00:32 | 421249 | ||
| DTLM4_TS_DEWT_092016.nc | 23-Dec-2024 00:39 | 450104 | ||
| DTLM4_TS_DEWT_092017.nc | 23-Dec-2024 00:46 | 450289 | ||
| DTLM4_TS_DEWT_092018.nc | 23-Dec-2024 00:52 | 449119 | ||
| DTLM4_TS_DEWT_092019.nc | 23-Dec-2024 01:00 | 449825 | ||
| DTLM4_TS_DEWT_092020.nc | 23-Dec-2024 01:07 | 468431 | ||
| DTLM4_TS_DEWT_092021.nc | 23-Dec-2024 01:14 | 999422 | ||
| DTLM4_TS_DEWT_092022.nc | 23-Dec-2024 01:22 | 1111891 | ||
| DTLM4_TS_DEWT_092023.nc | 23-Dec-2024 01:30 | 1112476 | ||
| DTLM4_TS_DEWT_092025.nc | 01-Oct-2025 05:06 | 1113817 | ||
| DTLM4_TS_DEWT_102014.nc | 23-Dec-2024 00:27 | 1113229 | ||
| DTLM4_TS_DEWT_102015.nc | 23-Dec-2024 00:33 | 450475 | ||
| DTLM4_TS_DEWT_102016.nc | 23-Dec-2024 00:39 | 449859 | ||
| DTLM4_TS_DEWT_102017.nc | 23-Dec-2024 00:46 | 450725 | ||
| DTLM4_TS_DEWT_102018.nc | 23-Dec-2024 00:53 | 450983 | ||
| DTLM4_TS_DEWT_102019.nc | 23-Dec-2024 01:00 | 1264175 | ||
| DTLM4_TS_DEWT_102020.nc | 23-Dec-2024 01:07 | 1107488 | ||
| DTLM4_TS_DEWT_102021.nc | 23-Dec-2024 01:15 | 1263513 | ||
| DTLM4_TS_DEWT_102022.nc | 23-Dec-2024 01:22 | 1265013 | ||
| DTLM4_TS_DEWT_102023.nc | 23-Dec-2024 01:31 | 644806 | ||
| DTLM4_TS_DEWT_102025.nc | 01-Nov-2025 04:12 | 1263310 | ||
| DTLM4_TS_DEWT_112014.nc | 23-Dec-2024 00:27 | 1264902 | ||
| DTLM4_TS_DEWT_112015.nc | 23-Dec-2024 00:34 | 449377 | ||
| DTLM4_TS_DEWT_112016.nc | 23-Dec-2024 00:40 | 450670 | ||
| DTLM4_TS_DEWT_112017.nc | 23-Dec-2024 00:47 | 449712 | ||
| DTLM4_TS_DEWT_112018.nc | 23-Dec-2024 00:53 | 1263626 | ||
| DTLM4_TS_DEWT_112019.nc | 23-Dec-2024 01:01 | 1264071 | ||
| DTLM4_TS_DEWT_112020.nc | 23-Dec-2024 01:08 | 1264127 | ||
| DTLM4_TS_DEWT_112021.nc | 23-Dec-2024 01:15 | 635333 | ||
| DTLM4_TS_DEWT_112022.nc | 23-Dec-2024 01:23 | 1266025 | ||
| DTLM4_TS_DEWT_112023.nc | 23-Dec-2024 01:31 | 1266765 | ||
| DTLM4_TS_DEWT_112024.nc | 17-Jan-2025 15:57 | 1261524 | ||
| DTLM4_TS_DEWT_112025.nc | 01-Dec-2025 06:40 | 449955 | ||
| DTLM4_TS_DEWT_122014.nc | 23-Dec-2024 00:28 | 448699 | ||
| DTLM4_TS_DEWT_122015.nc | 23-Dec-2024 00:34 | 449640 | ||
| DTLM4_TS_DEWT_122016.nc | 23-Dec-2024 00:41 | 449168 | ||
| DTLM4_TS_DEWT_122017.nc | 23-Dec-2024 00:47 | 1023216 | ||
| DTLM4_TS_DEWT_122018.nc | 23-Dec-2024 00:54 | 1111021 | ||
| DTLM4_TS_DEWT_122019.nc | 23-Dec-2024 01:02 | 1113297 | ||
| DTLM4_TS_DEWT_122020.nc | 23-Dec-2024 01:09 | 1113442 | ||
| DTLM4_TS_DEWT_122021.nc | 23-Dec-2024 01:16 | 1112475 | ||
| DTLM4_TS_DEWT_122022.nc | 23-Dec-2024 01:24 | 1114871 | ||
| DTLM4_TS_DEWT_122023.nc | 23-Dec-2024 01:32 | 429979 | ||
| DTLM4_TS_DEWT_122024.nc | 22-Jan-2025 17:12 | 450036 | ||
| DTLM4_TS_DEWT_122025.nc | 01-Jan-2026 07:46 | 451321 | ||